STARLINK-35516, 65918

Orbit data source: Space-Track

STARLINK-35516, 65918 is a payload satellite owned by SpaceX/Seattle (US) in LEO that was launched on Wed, 08 Oct 2025 UTC via an FALCON 9 launch vehicle from the Air Force Western Test Range (AFWTR). Payload-class satellites include a variety of spacecraft equipped with specific instruments for various scientific and technological missions. These include communications satellites like Starlink; space stations such as the ISS; scientific satellites like the Hubble; Earth observation satellites from companies like Planet Labs, Umbra, and HawkEye 360; GPS; miniature CubeSats for education and research; and military/defense satellites.

Loading next visibility...
Identifier
65918, 2025-225J
Orbit
LEO
Country
Flag of USUS
Related business
Manufacturer
SpaceX/Seattle
Mission
Operational Commercial Communications
Bus & Motor
STARLINK V2MO, Unknown motor
Mass
575 kg wet, ~530 kg dry
Launch date (UTC)
2025-10-08 (8 months ago)
Launch vehicle
FALCON 9
Launch site
Air Force Western Test Range (AFWTR)
Object type
Payload
Rocket body
Debris
Shape & HBR
Box + 2 Pan, 17.7 m
Radar Cross Section
36.964 m², Large (>1 m²)

Expand to show TLE details & history
Last TLE update: 10 hours ago

TLE from 10 hours ago
0 STARLINK-35516
1 65918U 25225J   26151.40317678  .00036446  00000-0  12361-2 0  9994
2 65918  53.1562 141.3615 0001105  75.7156 284.3967 15.30213311 37078
Epoch: 2026-05-31T09:40Z
TLE epoch observation values (Epoch: 2026-05-31T09:40:34.473Z)
Latitude
-0.00007°
Longitude
107.31246°
Altitude
475.886 km
Speed
7.629 km/s
True Right ascension
09h 25m 26s
True Declination
0° 00' 00"
Sunlit
Object was in daylight at epoch
Visualization orbit readout
Latitude
Unknown
Longitude
Unknown
Altitude
Unknown
Speed
Unknown
Apparent Right ascension
Unknown
Apparent Declination
Unknown
Sunlit
N/A
Visualization observer readout
Local Sidereal Time
04:59:54
Azimuth
Unknown
Elevation
Unknown
Doppler factor
Unknown
Orbital elements
Apogee altitude
476.19 km
Perigee altitude
474.675 km
Semi-major axis
6,853.569 km
Eccentricity
0.00011
Inclination
53.1562°
RAAN
141.3615°
Arg. of periapsis
75.7156°
True anomaly
284.38443°
Mean anomaly
284.3967°
Eccentric anomaly
284.39057°
Mean motion
3.82532 °/min
Orbital period
94.11 mins
BSTAR
0.0012361
Loading maneuver chart data...
Computing Atmospheric mass density...
Loading historical data...
Loading historical data...
Loading historical data...
Loading historical data...
Loading historical data...
Loading historical data...
Loading historical data...

Documentation

Showing up to 5 results
|